contact:dominique.lefevre@mio.osupytheas.fr, maurice.libes@osupytheas.fr, didier.mallarino@osupytheas.fr
Project:EMSO http://www.emso-fr.org/EMSO-France
Depth: 2436.0 m
Title:EMSO Ligure Ouest : Data MII capteur MICROCAT
DateTime_Computer,Latitude,Longitude,Temperature,Conductivity,Pressure,DateTime_Instrument
DateTime_Computer,Latitude,Longitude,degC,S m-1,dbar,DateTime_Instrument
2023-10-25T00:01:41Z,42.805,6.029,13.3046,4.60112,2470.754,2023-10-25T02:04:06Z
2023-10-25T00:04:44Z,42.805,6.029,13.3036,4.60108,2470.74,2023-10-25T02:07:09Z
2023-10-25T00:07:47Z,42.805,6.029,13.3036,4.60108,2470.74,2023-10-25T02:10:12Z
2023-10-25T00:10:50Z,42.805,6.029,13.3040,4.60111,2470.74,2023-10-25T02:13:15Z
2023-10-25T00:13:53Z,42.805,6.029,13.3046,4.60114,2470.763,2023-10-25T02:16:18Z
2023-10-25T00:16:56Z,42.805,6.029,13.3051,4.60133,2470.74,2023-10-25T02:19:21Z
2023-10-25T00:19:59Z,42.805,6.029,13.3060,4.60119,2470.717,2023-10-25T02:22:25Z
2023-10-25T00:23:02Z,42.805,6.029,13.3058,4.60110,2470.81,2023-10-25T02:25:28Z
2023-10-25T00:26:05Z,42.805,6.029,13.3048,4.60119,2470.754,2023-10-25T02:28:31Z
2023-10-25T00:29:08Z,42.805,6.029,13.3054,4.60120,2470.74,2023-10-25T02:31:34Z
2023-10-25T00:32:12Z,42.805,6.029,13.3047,4.60130,2470.763,2023-10-25T02:34:37Z
2023-10-25T00:35:15Z,42.805,6.029,13.3040,4.60123,2470.777,2023-10-25T02:37:40Z
2023-10-25T00:38:18Z,42.805,6.029,13.3042,4.60109,2470.777,2023-10-25T02:40:43Z
2023-10-25T00:41:21Z,42.805,6.029,13.3046,4.60122,2470.763,2023-10-25T02:43:46Z
2023-10-25T00:44:24Z,42.805,6.029,13.3039,4.60107,2470.74,2023-10-25T02:46:49Z
2023-10-25T00:47:27Z,42.805,6.029,13.3038,4.60105,2470.81,2023-10-25T02:49:52Z
2023-10-25T00:50:30Z,42.805,6.029,13.3056,4.60115,2470.763,2023-10-25T02:52:55Z
2023-10-25T00:53:33Z,42.805,6.029,13.3038,4.60108,2470.787,2023-10-25T02:55:59Z
2023-10-25T00:56:36Z,42.805,6.029,13.3039,4.60111,2470.73,2023-10-25T02:59:02Z
2023-10-25T00:59:39Z,42.805,6.029,13.3042,4.60107,2470.763,2023-10-25T03:02:05Z
2023-10-25T01:02:42Z,42.805,6.029,13.3041,4.60107,2470.777,2023-10-25T03:05:08Z
2023-10-25T01:05:45Z,42.805,6.029,13.3050,4.60132,2470.777,2023-10-25T03:08:11Z
2023-10-25T01:08:49Z,42.805,6.029,13.3043,4.60113,2470.787,2023-10-25T03:11:14Z
2023-10-25T01:11:52Z,42.805,6.029,13.3053,4.60117,2470.763,2023-10-25T03:14:17Z
2023-10-25T01:14:55Z,42.805,6.029,13.3056,4.60113,2470.726,2023-10-25T03:17:20Z
2023-10-25T01:17:58Z,42.805,6.029,13.3056,4.60119,2470.763,2023-10-25T03:20:23Z
2023-10-25T01:21:01Z,42.805,6.029,13.3039,4.60108,2470.763,2023-10-25T03:23:26Z
2023-10-25T01:24:04Z,42.805,6.029,13.3050,4.60116,2470.81,2023-10-25T03:26:29Z
2023-10-25T01:27:07Z,42.805,6.029,13.3044,4.60109,2470.81,2023-10-25T03:29:32Z
2023-10-25T01:30:10Z,42.805,6.029,13.3039,4.60106,2470.8,2023-10-25T03:32:35Z
2023-10-25T01:33:13Z,42.805,6.029,13.3051,4.60121,2470.787,2023-10-25T03:35:39Z
2023-10-25T01:36:16Z,42.805,6.029,13.3051,4.60121,2470.8,2023-10-25T03:38:42Z
2023-10-25T01:39:19Z,42.805,6.029,13.3043,4.60112,2470.81,2023-10-25T03:41:45Z
2023-10-25T01:42:22Z,42.805,6.029,13.3040,4.60110,2470.8,2023-10-25T03:44:48Z
2023-10-25T01:45:26Z,42.805,6.029,13.3052,4.60125,2470.787,2023-10-25T03:47:51Z
2023-10-25T01:48:29Z,42.805,6.029,13.3051,4.60129,2470.787,2023-10-25T03:50:54Z
2023-10-25T01:51:32Z,42.805,6.029,13.3044,4.60120,2470.787,2023-10-25T03:53:57Z
2023-10-25T01:54:35Z,42.805,6.029,13.3050,4.60119,2470.8,2023-10-25T03:57:00Z
2023-10-25T01:57:38Z,42.805,6.029,13.3053,4.60123,2470.8,2023-10-25T04:00:03Z
2023-10-25T02:00:41Z,42.805,6.029,13.3048,4.60132,2470.787,2023-10-25T04:03:06Z
2023-10-25T02:03:44Z,42.805,6.029,13.3044,4.60113,2470.81,2023-10-25T04:06:09Z
2023-10-25T02:06:47Z,42.805,6.029,13.3049,4.60127,2470.763,2023-10-25T04:09:12Z
2023-10-25T02:09:50Z,42.805,6.029,13.3057,4.60115,2470.8,2023-10-25T04:12:16Z
2023-10-25T02:12:53Z,42.805,6.029,13.3050,4.60137,2470.81,2023-10-25T04:15:19Z
2023-10-25T02:15:56Z,42.805,6.029,13.3047,4.60122,2470.796,2023-10-25T04:18:22Z
2023-10-25T02:18:59Z,42.805,6.029,13.3042,4.60117,2470.81,2023-10-25T04:21:25Z
2023-10-25T02:22:02Z,42.805,6.029,13.3043,4.60126,2470.787,2023-10-25T04:24:28Z
2023-10-25T02:25:06Z,42.805,6.029,13.3043,4.60137,2470.81,2023-10-25T04:27:31Z
2023-10-25T02:28:09Z,42.805,6.029,13.3051,4.60120,2470.81,2023-10-25T04:30:34Z
2023-10-25T02:31:12Z,42.805,6.029,13.3056,4.60123,2470.81,2023-10-25T04:33:37Z
2023-10-25T02:34:15Z,42.805,6.029,13.3054,4.60125,2470.8,2023-10-25T04:36:40Z
2023-10-25T02:37:18Z,42.805,6.029,13.3053,4.60131,2470.8,2023-10-25T04:39:43Z
2023-10-25T02:40:21Z,42.805,6.029,13.3054,4.60130,2470.81,2023-10-25T04:42:46Z
2023-10-25T02:43:24Z,42.805,6.029,13.3058,4.60129,2470.81,2023-10-25T04:45:49Z
2023-10-25T02:46:27Z,42.805,6.029,13.3052,4.60139,2470.824,2023-10-25T04:48:53Z
2023-10-25T02:49:30Z,42.805,6.029,13.3046,4.60129,2470.787,2023-10-25T04:51:56Z
2023-10-25T02:52:33Z,42.805,6.029,13.3051,4.60132,2470.8,2023-10-25T04:54:59Z
2023-10-25T02:55:36Z,42.805,6.029,13.3045,4.60132,2470.824,2023-10-25T04:58:02Z
2023-10-25T02:58:39Z,42.805,6.029,13.3054,4.60152,2470.847,2023-10-25T05:01:05Z
2023-10-25T03:01:43Z,42.805,6.029,13.3043,4.60122,2470.857,2023-10-25T05:04:08Z
2023-10-25T03:04:46Z,42.805,6.029,13.3054,4.60137,2470.833,2023-10-25T05:07:11Z
2023-10-25T03:07:49Z,42.805,6.029,13.3054,4.60127,2470.824,2023-10-25T05:10:14Z
2023-10-25T03:10:52Z,42.805,6.029,13.3050,4.60157,2470.833,2023-10-25T05:13:17Z
2023-10-25T03:13:55Z,42.805,6.029,13.3057,4.60127,2470.8,2023-10-25T05:16:20Z
2023-10-25T03:16:58Z,42.805,6.029,13.3053,4.60139,2470.857,2023-10-25T05:19:23Z
2023-10-25T03:20:01Z,42.805,6.029,13.3051,4.60135,2470.847,2023-10-25T05:22:26Z
2023-10-25T03:23:04Z,42.805,6.029,13.3045,4.60138,2470.833,2023-10-25T05:25:29Z
2023-10-25T03:26:07Z,42.805,6.029,13.3048,4.60142,2470.81,2023-10-25T05:28:33Z
2023-10-25T03:29:10Z,42.805,6.029,13.3045,4.60131,2470.847,2023-10-25T05:31:36Z
2023-10-25T03:32:13Z,42.805,6.029,13.3051,4.60121,2470.847,2023-10-25T05:34:39Z
2023-10-25T03:35:16Z,42.805,6.029,13.3046,4.60147,2470.824,2023-10-25T05:37:42Z
2023-10-25T03:38:19Z,42.805,6.029,13.3051,4.60151,2470.833,2023-10-25T05:40:45Z
2023-10-25T03:41:23Z,42.805,6.029,13.3051,4.60135,2470.833,2023-10-25T05:43:48Z
2023-10-25T03:44:26Z,42.805,6.029,13.3051,4.60140,2470.871,2023-10-25T05:46:51Z
2023-10-25T03:47:29Z,42.805,6.029,13.3051,4.60138,2470.833,2023-10-25T05:49:54Z
2023-10-25T03:50:32Z,42.805,6.029,13.3051,4.60152,2470.857,2023-10-25T05:52:57Z
2023-10-25T03:53:35Z,42.805,6.029,13.3045,4.60135,2470.81,2023-10-25T05:56:00Z
2023-10-25T03:56:38Z,42.805,6.029,13.3047,4.60142,2470.824,2023-10-25T05:59:03Z
2023-10-25T03:59:41Z,42.805,6.029,13.3051,4.60137,2470.833,2023-10-25T06:02:06Z
2023-10-25T04:02:44Z,42.805,6.029,13.3046,4.60140,2470.81,2023-10-25T06:05:10Z
2023-10-25T04:05:47Z,42.805,6.029,13.3043,4.60122,2470.847,2023-10-25T06:08:13Z
2023-10-25T04:08:50Z,42.805,6.029,13.3056,4.60122,2470.833,2023-10-25T06:11:16Z
2023-10-25T04:11:53Z,42.805,6.029,13.3051,4.60143,2470.847,2023-10-25T06:14:19Z
2023-10-25T04:14:56Z,42.805,6.029,13.3045,4.60138,2470.833,2023-10-25T06:17:22Z
2023-10-25T04:18:00Z,42.805,6.029,13.3048,4.60142,2470.833,2023-10-25T06:20:25Z
2023-10-25T04:21:03Z,42.805,6.029,13.3047,4.60132,2470.847,2023-10-25T06:23:28Z
2023-10-25T04:24:06Z,42.805,6.029,13.3046,4.60149,2470.847,2023-10-25T06:26:31Z
2023-10-25T04:27:09Z,42.805,6.029,13.3055,4.60127,2470.857,2023-10-25T06:29:34Z
2023-10-25T04:30:12Z,42.805,6.029,13.3051,4.60140,2470.857,2023-10-25T06:32:37Z
2023-10-25T04:33:15Z,42.805,6.029,13.3050,4.60137,2470.857,2023-10-25T06:35:40Z
2023-10-25T04:36:18Z,42.805,6.029,13.3047,4.60129,2470.857,2023-10-25T06:38:43Z
2023-10-25T04:39:21Z,42.805,6.029,13.3051,4.60140,2470.847,2023-10-25T06:41:47Z
2023-10-25T04:42:24Z,42.805,6.029,13.3046,4.60135,2470.833,2023-10-25T06:44:50Z
2023-10-25T04:45:27Z,42.805,6.029,13.3051,4.60130,2470.857,2023-10-25T06:47:53Z
2023-10-25T04:48:30Z,42.805,6.029,13.3047,4.60140,2470.857,2023-10-25T06:50:56Z
2023-10-25T04:51:33Z,42.805,6.029,13.3045,4.60122,2470.81,2023-10-25T06:53:59Z
2023-10-25T04:54:37Z,42.805,6.029,13.3048,4.60140,2470.871,2023-10-25T06:57:02Z
2023-10-25T04:57:40Z,42.805,6.029,13.3046,4.60133,2470.857,2023-10-25T07:00:05Z
2023-10-25T05:00:43Z,42.805,6.029,13.3063,4.60143,2470.847,2023-10-25T07:03:08Z
2023-10-25T05:03:46Z,42.805,6.029,13.3069,4.60158,2470.857,2023-10-25T07:06:11Z
2023-10-25T05:06:49Z,42.805,6.029,13.3058,4.60132,2470.871,2023-10-25T07:09:14Z
2023-10-25T05:09:52Z,42.805,6.029,13.3047,4.60141,2470.871,2023-10-25T07:12:17Z
2023-10-25T05:12:55Z,42.805,6.029,13.3051,4.60138,2470.847,2023-10-25T07:15:20Z
2023-10-25T05:15:58Z,42.805,6.029,13.3046,4.60138,2470.861,2023-10-25T07:18:23Z
2023-10-25T05:19:01Z,42.805,6.029,13.3048,4.60150,2470.857,2023-10-25T07:21:27Z
2023-10-25T05:22:04Z,42.805,6.029,13.3044,4.60137,2470.824,2023-10-25T07:24:30Z
2023-10-25T05:25:07Z,42.805,6.029,13.3051,4.60137,2470.871,2023-10-25T07:27:33Z
2023-10-25T05:28:10Z,42.805,6.029,13.3048,4.60155,2470.847,2023-10-25T07:30:36Z
2023-10-25T05:31:13Z,42.805,6.029,13.3053,4.60142,2470.81,2023-10-25T07:33:39Z
2023-10-25T05:34:17Z,42.805,6.029,13.3063,4.60143,2470.833,2023-10-25T07:36:42Z
2023-10-25T05:37:20Z,42.805,6.029,13.3043,4.60128,2470.81,2023-10-25T07:39:45Z
2023-10-25T05:40:23Z,42.805,6.029,13.3042,4.60134,2470.81,2023-10-25T07:42:48Z
2023-10-25T05:43:26Z,42.805,6.029,13.3041,4.60119,2470.857,2023-10-25T07:45:51Z
2023-10-25T05:46:29Z,42.805,6.029,13.3053,4.60132,2470.833,2023-10-25T07:48:54Z
2023-10-25T05:49:32Z,42.805,6.029,13.3047,4.60144,2470.833,2023-10-25T07:51:57Z
2023-10-25T05:52:35Z,42.805,6.029,13.3054,4.60135,2470.871,2023-10-25T07:55:00Z
2023-10-25T05:55:38Z,42.805,6.029,13.3048,4.60137,2470.847,2023-10-25T07:58:04Z
2023-10-25T05:58:41Z,42.805,6.029,13.3055,4.60145,2470.833,2023-10-25T08:01:07Z
2023-10-25T06:01:44Z,42.805,6.029,13.3051,4.60148,2470.824,2023-10-25T08:04:10Z
2023-10-25T06:04:47Z,42.805,6.029,13.3055,4.60135,2470.81,2023-10-25T08:07:13Z
2023-10-25T06:07:50Z,42.805,6.029,13.3046,4.60148,2470.833,2023-10-25T08:10:16Z
2023-10-25T06:10:54Z,42.805,6.029,13.3066,4.60151,2470.833,2023-10-25T08:13:19Z
2023-10-25T06:13:57Z,42.805,6.029,13.3051,4.60131,2470.787,2023-10-25T08:16:22Z
2023-10-25T06:17:00Z,42.805,6.029,13.3054,4.60127,2470.857,2023-10-25T08:19:25Z
2023-10-25T06:20:03Z,42.805,6.029,13.3043,4.60134,2470.787,2023-10-25T08:22:28Z
2023-10-25T06:23:06Z,42.805,6.029,13.3053,4.60137,2470.81,2023-10-25T08:25:31Z
2023-10-25T06:26:09Z,42.805,6.029,13.3047,4.60137,2470.787,2023-10-25T08:28:34Z
2023-10-25T06:29:12Z,42.805,6.029,13.3054,4.60141,2470.81,2023-10-25T08:31:37Z
2023-10-25T06:32:15Z,42.805,6.029,13.3058,4.60139,2470.847,2023-10-25T08:34:41Z
2023-10-25T06:35:18Z,42.805,6.029,13.3039,4.60120,2470.833,2023-10-25T08:37:44Z
2023-10-25T06:38:21Z,42.805,6.029,13.3046,4.60147,2470.81,2023-10-25T08:40:47Z
2023-10-25T06:41:24Z,42.805,6.029,13.3054,4.60154,2470.824,2023-10-25T08:43:50Z
2023-10-25T06:44:27Z,42.805,6.029,13.3046,4.60125,2470.81,2023-10-25T08:46:53Z
2023-10-25T06:47:31Z,42.805,6.029,13.3045,4.60130,2470.81,2023-10-25T08:49:56Z
2023-10-25T06:50:34Z,42.805,6.029,13.3043,4.60133,2470.824,2023-10-25T08:52:59Z
2023-10-25T06:53:37Z,42.805,6.029,13.3048,4.60126,2470.81,2023-10-25T08:56:02Z
2023-10-25T06:56:40Z,42.805,6.029,13.3042,4.60134,2470.787,2023-10-25T08:59:05Z
2023-10-25T06:59:43Z,42.805,6.029,13.3043,4.60130,2470.833,2023-10-25T09:02:08Z
2023-10-25T07:02:46Z,42.805,6.029,13.3050,4.60137,2470.787,2023-10-25T09:05:11Z
2023-10-25T07:05:49Z,42.805,6.029,13.3043,4.60124,2470.824,2023-10-25T09:08:14Z
2023-10-25T07:08:52Z,42.805,6.029,13.3041,4.60135,2470.787,2023-10-25T09:11:17Z
2023-10-25T07:11:55Z,42.805,6.029,13.3044,4.60128,2470.796,2023-10-25T09:14:21Z
2023-10-25T07:14:58Z,42.805,6.029,13.3044,4.60140,2470.81,2023-10-25T09:17:24Z
2023-10-25T07:18:01Z,42.805,6.029,13.3056,4.60155,2470.833,2023-10-25T09:20:27Z
2023-10-25T07:21:04Z,42.805,6.029,13.3045,4.60129,2470.81,2023-10-25T09:23:30Z
2023-10-25T07:24:07Z,42.805,6.029,13.3044,4.60129,2470.81,2023-10-25T09:26:33Z
2023-10-25T07:27:11Z,42.805,6.029,13.3041,4.60128,2470.81,2023-10-25T09:29:36Z
2023-10-25T07:30:14Z,42.805,6.029,13.3043,4.60121,2470.787,2023-10-25T09:32:39Z
2023-10-25T07:33:17Z,42.805,6.029,13.3041,4.60141,2470.824,2023-10-25T09:35:42Z
2023-10-25T07:36:20Z,42.805,6.029,13.3048,4.60132,2470.787,2023-10-25T09:38:45Z
2023-10-25T07:39:23Z,42.805,6.029,13.3054,4.60138,2470.847,2023-10-25T09:41:48Z
2023-10-25T07:42:26Z,42.805,6.029,13.3053,4.60142,2470.824,2023-10-25T09:44:51Z
2023-10-25T07:45:29Z,42.805,6.029,13.3043,4.60126,2470.787,2023-10-25T09:47:54Z
2023-10-25T07:48:32Z,42.805,6.029,13.3044,4.60127,2470.763,2023-10-25T09:50:58Z
2023-10-25T07:51:35Z,42.805,6.029,13.3045,4.60127,2470.81,2023-10-25T09:54:01Z
2023-10-25T07:54:38Z,42.805,6.029,13.3043,4.60149,2470.8,2023-10-25T09:57:04Z
2023-10-25T07:57:41Z,42.805,6.029,13.3054,4.60139,2470.81,2023-10-25T10:00:07Z
2023-10-25T08:00:44Z,42.805,6.029,13.3045,4.60140,2470.777,2023-10-25T10:03:10Z
2023-10-25T08:03:48Z,42.805,6.029,13.3045,4.60138,2470.777,2023-10-25T10:06:13Z
2023-10-25T08:06:51Z,42.805,6.029,13.3047,4.60144,2470.763,2023-10-25T10:09:16Z
2023-10-25T08:09:54Z,42.805,6.029,13.3047,4.60140,2470.763,2023-10-25T10:12:19Z
2023-10-25T08:12:57Z,42.805,6.029,13.3048,4.60139,2470.787,2023-10-25T10:15:22Z
2023-10-25T08:16:00Z,42.805,6.029,13.3046,4.60140,2470.8,2023-10-25T10:18:25Z
2023-10-25T08:19:03Z,42.805,6.029,13.3043,4.60132,2470.763,2023-10-25T10:21:28Z
2023-10-25T08:22:06Z,42.805,6.029,13.3047,4.60133,2470.763,2023-10-25T10:24:31Z
2023-10-25T08:25:09Z,42.805,6.029,13.3049,4.60140,2470.8,2023-10-25T10:27:34Z
2023-10-25T08:28:12Z,42.805,6.029,13.3046,4.60138,2470.763,2023-10-25T10:30:38Z
2023-10-25T08:31:15Z,42.805,6.029,13.3050,4.60144,2470.787,2023-10-25T10:33:41Z
2023-10-25T08:34:18Z,42.805,6.029,13.3048,4.60144,2470.777,2023-10-25T10:36:44Z
2023-10-25T08:37:21Z,42.805,6.029,13.3048,4.60145,2470.787,2023-10-25T10:39:47Z
2023-10-25T08:40:25Z,42.805,6.029,13.3051,4.60143,2470.787,2023-10-25T10:42:50Z
2023-10-25T08:43:28Z,42.805,6.029,13.3050,4.60144,2470.763,2023-10-25T10:45:53Z
2023-10-25T08:46:31Z,42.805,6.029,13.3048,4.60162,2470.763,2023-10-25T10:48:56Z
2023-10-25T08:49:34Z,42.805,6.029,13.3044,4.60135,2470.754,2023-10-25T10:51:59Z
2023-10-25T08:52:37Z,42.805,6.029,13.3042,4.60134,2470.74,2023-10-25T10:55:02Z
2023-10-25T08:55:40Z,42.805,6.029,13.3045,4.60141,2470.763,2023-10-25T10:58:05Z
2023-10-25T08:58:43Z,42.805,6.029,13.3047,4.60141,2470.754,2023-10-25T11:01:08Z
2023-10-25T09:01:46Z,42.805,6.029,13.3049,4.60140,2470.763,2023-10-25T11:04:12Z
2023-10-25T09:04:49Z,42.805,6.029,13.3041,4.60129,2470.763,2023-10-25T11:07:15Z
2023-10-25T09:07:52Z,42.805,6.029,13.3044,4.60131,2470.777,2023-10-25T11:10:18Z
2023-10-25T09:10:55Z,42.805,6.029,13.3048,4.60140,2470.777,2023-10-25T11:13:21Z
2023-10-25T09:13:58Z,42.805,6.029,13.3050,4.60145,2470.8,2023-10-25T11:16:24Z
2023-10-25T09:17:02Z,42.805,6.029,13.3048,4.60141,2470.763,2023-10-25T11:19:27Z
2023-10-25T09:20:05Z,42.805,6.029,13.3047,4.60137,2470.763,2023-10-25T11:22:30Z
2023-10-25T09:23:08Z,42.805,6.029,13.3046,4.60142,2470.726,2023-10-25T11:25:33Z
2023-10-25T09:26:11Z,42.805,6.029,13.3046,4.60152,2470.777,2023-10-25T11:28:36Z
2023-10-25T09:29:14Z,42.805,6.029,13.3046,4.60142,2470.787,2023-10-25T11:31:39Z
2023-10-25T09:32:17Z,42.805,6.029,13.3054,4.60142,2470.763,2023-10-25T11:34:42Z
2023-10-25T09:35:20Z,42.805,6.029,13.3048,4.60142,2470.74,2023-10-25T11:37:45Z
2023-10-25T09:38:23Z,42.805,6.029,13.3046,4.60132,2470.763,2023-10-25T11:40:49Z
2023-10-25T09:41:26Z,42.805,6.029,13.3043,4.60128,2470.754,2023-10-25T11:43:52Z
2023-10-25T09:44:29Z,42.805,6.029,13.3050,4.60137,2470.754,2023-10-25T11:46:55Z
2023-10-25T09:47:32Z,42.805,6.029,13.3051,4.60144,2470.763,2023-10-25T11:49:58Z
2023-10-25T09:50:36Z,42.805,6.029,13.3046,4.60150,2470.754,2023-10-25T11:53:01Z
2023-10-25T09:53:39Z,42.805,6.029,13.3050,4.60141,2470.8,2023-10-25T11:56:04Z
2023-10-25T09:56:42Z,42.805,6.029,13.3051,4.60142,2470.8,2023-10-25T11:59:07Z
2023-10-25T09:59:45Z,42.805,6.029,13.3048,4.60142,2470.763,2023-10-25T12:02:10Z
2023-10-25T10:02:48Z,42.805,6.029,13.3057,4.60141,2470.763,2023-10-25T12:05:13Z
2023-10-25T10:05:51Z,42.805,6.029,13.3043,4.60127,2470.763,2023-10-25T12:08:16Z
2023-10-25T10:08:54Z,42.805,6.029,13.3050,4.60140,2470.74,2023-10-25T12:11:19Z
2023-10-25T10:11:57Z,42.805,6.029,13.3043,4.60132,2470.74,2023-10-25T12:14:23Z
2023-10-25T10:15:00Z,42.805,6.029,13.3044,4.60139,2470.754,2023-10-25T12:17:26Z
2023-10-25T10:18:03Z,42.805,6.029,13.3047,4.60138,2470.787,2023-10-25T12:20:29Z
2023-10-25T10:21:06Z,42.805,6.029,13.3045,4.60132,2470.754,2023-10-25T12:23:32Z
2023-10-25T10:24:09Z,42.805,6.029,13.3053,4.60144,2470.763,2023-10-25T12:26:35Z
2023-10-25T10:27:13Z,42.805,6.029,13.3048,4.60140,2470.74,2023-10-25T12:29:38Z
2023-10-25T10:30:14Z,42.805,6.029,13.3046,4.60143,2470.74,2023-10-25T12:32:40Z
2023-10-25T10:33:18Z,42.805,6.029,13.3043,4.60135,2470.74,2023-10-25T12:35:43Z
2023-10-25T10:36:21Z,42.805,6.029,13.3055,4.60152,2470.777,2023-10-25T12:38:46Z
2023-10-25T10:39:24Z,42.805,6.029,13.3044,4.60143,2470.777,2023-10-25T12:41:49Z
2023-10-25T10:42:27Z,42.805,6.029,13.3046,4.60148,2470.754,2023-10-25T12:44:52Z
2023-10-25T10:45:30Z,42.805,6.029,13.3042,4.60132,2470.763,2023-10-25T12:47:55Z
2023-10-25T10:48:33Z,42.805,6.029,13.3046,4.60141,2470.777,2023-10-25T12:50:58Z
2023-10-25T10:51:36Z,42.805,6.029,13.3046,4.60140,2470.74,2023-10-25T12:54:01Z
2023-10-25T10:54:39Z,42.805,6.029,13.3046,4.60132,2470.763,2023-10-25T12:57:05Z
2023-10-25T10:57:42Z,42.805,6.029,13.3039,4.60142,2470.74,2023-10-25T13:00:08Z
2023-10-25T11:00:45Z,42.805,6.029,13.3038,4.60137,2470.763,2023-10-25T13:03:11Z
2023-10-25T11:03:48Z,42.805,6.029,13.3041,4.60129,2470.74,2023-10-25T13:06:14Z
2023-10-25T11:06:51Z,42.805,6.029,13.3046,4.60137,2470.74,2023-10-25T13:09:17Z
2023-10-25T11:09:55Z,42.805,6.029,13.3047,4.60133,2470.754,2023-10-25T13:12:20Z
2023-10-25T11:12:58Z,42.805,6.029,13.3050,4.60146,2470.763,2023-10-25T13:15:23Z
2023-10-25T11:16:01Z,42.805,6.029,13.3048,4.60150,2470.717,2023-10-25T13:18:26Z
2023-10-25T11:19:04Z,42.805,6.029,13.3055,4.60132,2470.754,2023-10-25T13:21:29Z
2023-10-25T11:22:07Z,42.805,6.029,13.3048,4.60125,2470.763,2023-10-25T13:24:32Z
2023-10-25T11:25:10Z,42.805,6.029,13.3043,4.60142,2470.763,2023-10-25T13:27:35Z
2023-10-25T11:28:13Z,42.805,6.029,13.3041,4.60135,2470.787,2023-10-25T13:30:38Z
2023-10-25T11:31:16Z,42.805,6.029,13.3048,4.60123,2470.763,2023-10-25T13:33:42Z
2023-10-25T11:34:19Z,42.805,6.029,13.3047,4.60132,2470.763,2023-10-25T13:36:45Z
2023-10-25T11:37:22Z,42.805,6.029,13.3055,4.60129,2470.777,2023-10-25T13:39:48Z
2023-10-25T11:40:25Z,42.805,6.029,13.3041,4.60124,2470.8,2023-10-25T13:42:51Z
2023-10-25T11:43:29Z,42.805,6.029,13.3045,4.60130,2470.763,2023-10-25T13:45:54Z
2023-10-25T11:46:32Z,42.805,6.029,13.3045,4.60142,2470.763,2023-10-25T13:48:57Z
2023-10-25T11:49:35Z,42.805,6.029,13.3051,4.60134,2470.74,2023-10-25T13:52:00Z
2023-10-25T11:52:38Z,42.805,6.029,13.3058,4.60153,2470.777,2023-10-25T13:55:03Z
2023-10-25T11:55:41Z,42.805,6.029,13.3055,4.60134,2470.777,2023-10-25T13:58:06Z
2023-10-25T11:58:44Z,42.805,6.029,13.3043,4.60132,2470.763,2023-10-25T14:01:09Z
2023-10-25T12:01:47Z,42.805,6.029,13.3045,4.60135,2470.787,2023-10-25T14:04:12Z
2023-10-25T12:04:50Z,42.805,6.029,13.3045,4.60131,2470.75,2023-10-25T14:07:15Z
2023-10-25T12:07:53Z,42.805,6.029,13.3046,4.60142,2470.8,2023-10-25T14:10:19Z
2023-10-25T12:10:56Z,42.805,6.029,13.3048,4.60128,2470.8,2023-10-25T14:13:22Z
2023-10-25T12:13:59Z,42.805,6.029,13.3044,4.60122,2470.777,2023-10-25T14:16:25Z
2023-10-25T12:17:02Z,42.805,6.029,13.3047,4.60137,2470.787,2023-10-25T14:19:28Z
2023-10-25T12:20:06Z,42.805,6.029,13.3039,4.60135,2470.8,2023-10-25T14:22:31Z
2023-10-25T12:23:09Z,42.805,6.029,13.3040,4.60141,2470.787,2023-10-25T14:25:34Z
2023-10-25T12:26:12Z,42.805,6.029,13.3048,4.60127,2470.787,2023-10-25T14:28:37Z
2023-10-25T12:29:15Z,42.805,6.029,13.3046,4.60135,2470.787,2023-10-25T14:31:40Z
2023-10-25T12:32:18Z,42.805,6.029,13.3051,4.60141,2470.777,2023-10-25T14:34:43Z
2023-10-25T12:35:21Z,42.805,6.029,13.3043,4.60132,2470.81,2023-10-25T14:37:46Z
2023-10-25T12:38:24Z,42.805,6.029,13.3043,4.60130,2470.787,2023-10-25T14:40:49Z
2023-10-25T12:41:27Z,42.805,6.029,13.3045,4.60137,2470.81,2023-10-25T14:43:53Z
2023-10-25T12:44:30Z,42.805,6.029,13.3051,4.60135,2470.833,2023-10-25T14:46:56Z
2023-10-25T12:47:33Z,42.805,6.029,13.3047,4.60132,2470.838,2023-10-25T14:49:59Z
2023-10-25T12:50:36Z,42.805,6.029,13.3046,4.60132,2470.824,2023-10-25T14:53:02Z
2023-10-25T12:53:39Z,42.805,6.029,13.3043,4.60135,2470.824,2023-10-25T14:56:05Z
2023-10-25T12:56:43Z,42.805,6.029,13.3047,4.60133,2470.81,2023-10-25T14:59:08Z
2023-10-25T12:59:46Z,42.805,6.029,13.3044,4.60130,2470.81,2023-10-25T15:02:11Z
2023-10-25T13:02:49Z,42.805,6.029,13.3051,4.60143,2470.814,2023-10-25T15:05:14Z
2023-10-25T13:05:52Z,42.805,6.029,13.3055,4.60139,2470.81,2023-10-25T15:08:17Z
2023-10-25T13:08:55Z,42.805,6.029,13.3043,4.60135,2470.824,2023-10-25T15:11:20Z
2023-10-25T13:11:58Z,42.805,6.029,13.3039,4.60129,2470.81,2023-10-25T15:14:23Z
2023-10-25T13:15:01Z,42.805,6.029,13.3046,4.60138,2470.824,2023-10-25T15:17:26Z
2023-10-25T13:18:04Z,42.805,6.029,13.3051,4.60132,2470.81,2023-10-25T15:20:30Z
2023-10-25T13:21:07Z,42.805,6.029,13.3047,4.60133,2470.833,2023-10-25T15:23:33Z
2023-10-25T13:24:10Z,42.805,6.029,13.3052,4.60148,2470.833,2023-10-25T15:26:36Z
2023-10-25T13:27:13Z,42.805,6.029,13.3046,4.60138,2470.857,2023-10-25T15:29:39Z
2023-10-25T13:30:17Z,42.805,6.029,13.3051,4.60152,2470.857,2023-10-25T15:32:42Z
2023-10-25T13:33:20Z,42.805,6.029,13.3058,4.60125,2470.857,2023-10-25T15:35:45Z
2023-10-25T13:36:23Z,42.805,6.029,13.3049,4.60125,2470.857,2023-10-25T15:38:48Z
2023-10-25T13:39:26Z,42.805,6.029,13.3045,4.60144,2470.871,2023-10-25T15:41:51Z
2023-10-25T13:42:29Z,42.805,6.029,13.3043,4.60150,2470.857,2023-10-25T15:44:54Z
2023-10-25T13:45:32Z,42.805,6.029,13.3046,4.60138,2470.847,2023-10-25T15:47:57Z
2023-10-25T13:48:35Z,42.805,6.029,13.3056,4.60150,2470.847,2023-10-25T15:51:00Z
2023-10-25T13:51:38Z,42.805,6.029,13.3045,4.60141,2470.857,2023-10-25T15:54:04Z
2023-10-25T13:54:41Z,42.805,6.029,13.3043,4.60127,2470.894,2023-10-25T15:57:07Z
2023-10-25T13:57:44Z,42.805,6.029,13.3049,4.60121,2470.857,2023-10-25T16:00:10Z
2023-10-25T14:00:47Z,42.805,6.029,13.3040,4.60133,2470.857,2023-10-25T16:03:13Z
2023-10-25T14:03:50Z,42.805,6.029,13.3053,4.60124,2470.88,2023-10-25T16:06:16Z
2023-10-25T14:06:54Z,42.805,6.029,13.3048,4.60127,2470.857,2023-10-25T16:09:19Z
2023-10-25T14:09:57Z,42.805,6.029,13.3049,4.60148,2470.88,2023-10-25T16:12:22Z
2023-10-25T14:13:00Z,42.805,6.029,13.3050,4.60150,2470.871,2023-10-25T16:15:25Z
2023-10-25T14:16:03Z,42.805,6.029,13.3055,4.60133,2470.88,2023-10-25T16:18:28Z
2023-10-25T14:19:06Z,42.805,6.029,13.3051,4.60144,2470.857,2023-10-25T16:21:31Z
2023-10-25T14:22:09Z,42.805,6.029,13.3049,4.60142,2470.843,2023-10-25T16:24:34Z
2023-10-25T14:25:12Z,42.805,6.029,13.3043,4.60135,2470.88,2023-10-25T16:27:37Z
2023-10-25T14:28:15Z,42.805,6.029,13.3051,4.60133,2470.904,2023-10-25T16:30:41Z
2023-10-25T14:31:17Z,42.805,6.029,13.3042,4.60125,2470.88,2023-10-25T16:33:42Z
2023-10-25T14:34:20Z,42.805,6.029,13.3041,4.60133,2470.894,2023-10-25T16:36:45Z
2023-10-25T14:37:23Z,42.805,6.029,13.3046,4.60127,2470.904,2023-10-25T16:39:49Z
2023-10-25T14:40:26Z,42.805,6.029,13.3041,4.60134,2470.917,2023-10-25T16:42:52Z
2023-10-25T14:43:29Z,42.805,6.029,13.3045,4.60138,2470.904,2023-10-25T16:45:55Z
2023-10-25T14:46:32Z,42.805,6.029,13.3046,4.60146,2470.894,2023-10-25T16:48:58Z
2023-10-25T14:49:36Z,42.805,6.029,13.3054,4.60132,2470.917,2023-10-25T16:52:01Z
2023-10-25T14:52:39Z,42.805,6.029,13.3046,4.60141,2470.88,2023-10-25T16:55:04Z
2023-10-25T14:55:42Z,42.805,6.029,13.3041,4.60127,2470.94,2023-10-25T16:58:07Z
2023-10-25T14:58:45Z,42.805,6.029,13.3049,4.60132,2470.904,2023-10-25T17:01:10Z
2023-10-25T15:01:48Z,42.805,6.029,13.3048,4.60155,2470.88,2023-10-25T17:04:13Z